Location: Unspecified
(48.8656°N, 0.0000°E)
Time: 04:05:16
(UTC+00:00)

SR - Pass Details

Date: 01 July 2019
Orbit: 580 x 876 km, 66.7° (Epoch: 17 July)

Event Time Altitude Azimuth Distance (km) Brightness Sun altitude
Rises 11:05:34 0° 315° (NW) 3,067 ? 61.8°
Reaches altitude 10° 11:08:10 10° 302° (WNW) 2,197 ? 62.0°
Maximum altitude 11:12:12 25° 248° (WSW) 1,487 ? 62.3°
Drops below altitude 10° 11:16:30 10° 195° (SSW) 2,343 ? 62.6°
Sets 11:19:22 0° 182° (S) 3,317 ? 62.8°
